Time,TemperatureF,DewpointF,PressureIn,WindDirection,WindDirectionDegrees,WindSpeedMPH,WindSpeedGustMPH,Humidity,HourlyPrecipIn,Conditions,Clouds,dailyrainin,SoftwareType,DateUTC
2013-03-03 00:00:00,41.0,-99.9,-100.00,ENE,77,7.0,-999.0,-999,-99.99,,,-99.99,,2013-03-03 08:00:00,
2013-03-03 00:54:00,41.0,-99.9,-100.00,ENE,77,7.0,-999.0,-999,-99.99,,,-99.99,,2013-03-03 08:54:00,
2013-03-03 01:00:00,40.0,-99.9,-100.00,ESE,120,3.0,-999.0,-999,-99.99,,,-99.99,,2013-03-03 09:00:00,
2013-03-03 02:00:00,39.0,-99.9,-100.00,SSE,151,1.0,-999.0,-999,-99.99,,,-99.99,,2013-03-03 10:00:00,
2013-03-03 02:52:00,39.0,-99.9,-100.00,SSE,151,1.0,-999.0,-999,-99.99,,,-99.99,,2013-03-03 10:52:00,
2013-03-03 03:00:00,39.0,-99.9,-100.00,SSE,167,3.0,-999.0,-999,-99.99,,,-99.99,,2013-03-03 11:00:00,
2013-03-03 03:53:00,39.0,-99.9,-100.00,SSE,167,3.0,-999.0,-999,-99.99,,,-99.99,,2013-03-03 11:53:00,
2013-03-03 04:00:00,38.0,-99.9,-100.00,South,169,3.0,-999.0,-999,-99.99,,,-99.99,,2013-03-03 12:00:00,
2013-03-03 05:00:00,37.0,-99.9,-100.00,South,169,2.0,-999.0,-999,-99.99,,,-99.99,,2013-03-03 13:00:00,
2013-03-03 06:00:00,37.0,-99.9,-100.00,SSE,162,3.0,-999.0,-999,-99.99,,,-99.99,,2013-03-03 14:00:00,
2013-03-03 07:00:00,37.0,-99.9,-100.00,SSE,168,5.0,-999.0,-999,-99.99,,,-99.99,,2013-03-03 15:00:00,
2013-03-03 08:00:00,39.0,-99.9,-100.00,SSE,162,6.0,-999.0,-999,-99.99,,,-99.99,,2013-03-03 16:00:00,
2013-03-03 09:00:00,43.0,-99.9,-100.00,SE,146,3.0,-999.0,-999,-99.99,,,-99.99,,2013-03-03 17:00:00,
2013-03-03 10:00:00,47.0,-99.9,-100.00,SSE,161,5.0,-999.0,-999,-99.99,,,-99.99,,2013-03-03 18:00:00,
2013-03-03 11:00:00,51.0,-99.9,-100.00,SSW,202,3.0,-999.0,-999,-99.99,,,-99.99,,2013-03-03 19:00:00,
2013-03-03 12:00:00,52.0,-99.9,-100.00,WSW,238,5.0,-999.0,-999,-99.99,,,-99.99,,2013-03-03 20:00:00,
2013-03-03 13:00:00,54.0,-99.9,-100.00,West,276,3.0,-999.0,-999,-99.99,,,-99.99,,2013-03-03 21:00:00,
2013-03-03 13:52:00,54.0,-99.9,-100.00,West,276,3.0,-999.0,-999,-99.99,,,-99.99,,2013-03-03 21:52:00,
2013-03-03 14:00:00,53.0,-99.9,-100.00,NW,313,3.0,-999.0,-999,-99.99,,,-99.99,,2013-03-03 22:00:00,
2013-03-03 15:00:00,51.0,-99.9,-100.00,NNW,343,5.0,-999.0,-999,-99.99,,,-99.99,,2013-03-03 23:00:00,
2013-03-03 16:00:00,50.0,-99.9,-100.00,NW,326,6.0,-999.0,-999,-99.99,,,-99.99,,2013-03-04 00:00:00,
2013-03-03 17:00:00,51.0,-99.9,-100.00,NW,315,3.0,-999.0,-999,-99.99,,,-99.99,,2013-03-04 01:00:00,
2013-03-03 17:52:00,51.0,-99.9,-100.00,NW,315,3.0,-999.0,-999,-99.99,,,-99.99,,2013-03-04 01:52:00,
2013-03-03 18:00:00,49.0,-99.9,-100.00,NNW,340,5.0,-999.0,-999,-99.99,,,-99.99,,2013-03-04 02:00:00,
2013-03-03 18:53:00,49.0,-99.9,-100.00,NNW,340,5.0,-999.0,-999,-99.99,,,-99.99,,2013-03-04 02:53:00,
2013-03-03 19:00:00,46.0,-99.9,-100.00,NE,50,3.0,-999.0,-999,-99.99,,,-99.99,,2013-03-04 03:00:00,
2013-03-03 19:53:00,46.0,-99.9,-100.00,NE,50,3.0,-999.0,-999,-99.99,,,-99.99,,2013-03-04 03:53:00,
2013-03-03 20:00:00,44.0,-99.9,-100.00,NNE,28,2.0,-999.0,-999,-99.99,,,-99.99,,2013-03-04 04:00:00,
2013-03-03 21:00:00,41.0,-99.9,-100.00,SSW,193,1.0,-999.0,-999,-99.99,,,-99.99,,2013-03-04 05:00:00,
2013-03-03 22:00:00,39.0,-99.9,-100.00,NW,320,1.0,-999.0,-999,-99.99,,,-99.99,,2013-03-04 06:00:00,
2013-03-03 23:00:00,39.0,-99.9,-100.00,North,355,1.0,-999.0,-999,-99.99,,,-99.99,,2013-03-04 07:00:00,
2013-03-03 23:52:00,39.0,-99.9,-100.00,North,355,1.0,-999.0,-999,-99.99,,,-99.99,,2013-03-04 07:52:00,